Volver al catálogo

THOR ABLESTAR DEB

ActivoLEO
NORAD 145·DEBRIS·🇺🇸 United States

Lanzado Jun 29, 1961 desde Cape Canaveral Space Force Station

Loading…

Próximos Pases (próximas 24 horas)

TLE

ActualizadoSource: Space-Track

Época: Sep 9, 2026, 22:34 UTC

1 00145U 61015AF  26252.94049551  .00000126  00000-0  12837-3 0  9990
2 00145  66.9266 172.6045 0068328 236.6179 122.8357 14.03335296328606

Sigue THOR ABLESTAR DEB en tiempo real con AllMySat

Download on the App Store